Hourly Data Report for July 22, 2021

FLIN FLON
MANITOBA
Current Station Operator: ECCC - MSC

54°41'00.000" N
101°41'00.000" W
303.90 m
5050919
71954
WFO

Download Data

Hourly Data (July 2021)
Hourly Data Report for July 22, 2021
TIME
LST
Temp Definition
°C
Dew Point Definition
°C
Rel Hum Definition
%
Precip. Amount Definition
mm

Wind Dir Definition
10's deg

Wind Spd Definition
km/h
Visibility Definition
km
Stn Press Definition
kPa
Hmdx Definition


Wind Chill Definition


Weather Definition


00:00 20.1 17.5 85 0.0 13 7   97.82 26   LegendNANA
01:00 19.3 17.4 89 0.0 13 6   97.79     LegendNANA
02:00 18.9 17.4 91 0.0 12 8   97.71     LegendNANA
03:00 18.8 17.5 92 0.0 14 6   97.69     LegendNANA
04:00 18.9 17.8 93 0.0 14 10   97.67     LegendNANA
05:00 19.2 18.3 94 0.0 16 10   97.68     LegendNANA
06:00 19.4 18.6 95 0.0 16 10   97.69     LegendNANA
07:00 19.6 18.6 94 0.0 15 9   97.65     LegendNANA
08:00 19.7 18.7 94 0.0 15 12   97.64     LegendNANA
09:00 20.1 19.2 95 0.0 15 12   97.58 27   LegendNANA
10:00 20.5 19.2 92 0.0 16 15   97.55 27   LegendNANA
11:00 21.2 19.3 89 0.0 16 14   97.47 28   LegendNANA
12:00 22.7 19.4 81 0.0 17 15   97.42 30   LegendNANA
13:00 23.8 19.6 77 0.0 16 18   97.33 31   LegendNANA
14:00 24.8 19.9 74 0.0 17 16   97.29 32   LegendNANA
15:00 23.5 19.6 78 0.0 15 12   97.29 31   LegendNANA
16:00 25.7 19.7 69 0.0 16 20   97.14 33   LegendNANA
17:00 25.0 19.9 73 0.0 16 17   97.07 32   LegendNANA
18:00 25.4 19.8 71 0.0 16 18   96.93 33   LegendNANA
19:00 24.2 19.7 76 0.0 15 13   96.92 32   LegendNANA
20:00 23.5 19.9 80 0.0 17 13   96.82 31   LegendNANA
21:00 21.8 15.7 68 0.0 3 12   96.82 26   LegendNANA
22:00 23.3 19.9 81 0.0 15 19   96.67 31   LegendNANA
23:00 22.4 20.2 87 0.0 18 14   96.57 30   LegendNANA

Notes on Data Quality.

Legend

  • E = Estimated
  • M = Missing
  • NA = Not Available*
  • [empty] = Indicates an unobserved value
Date modified: